This is the latest recevied weather packets stored in our database for station/object KB0BS-13. If no packets are shown the sender has not sent any weather packets the latest 10 day(s).
| Time | Temp. | Humidity | Pressure | Rain* | Wind** | Luminosity | Snow |
|---|---|---|---|---|---|---|---|
| 1778097442 | 4.44° C | 62% | 1013.2 hPa | 0 mm | - | 161 W/m² | - |
| 1778097139 | 4.44° C | 61% | 1013.1 hPa | 0 mm | - | 153 W/m² | - |
| 1778096836 | 5° C | 62% | 1013.3 hPa | 0 mm | - | 153 W/m² | - |
| 1778096532 | 5° C | 56% | 1013.1 hPa | 0 mm | - | 162 W/m² | - |
| 1778096231 | 5° C | 56% | 1013.1 hPa | 0 mm | - | 185 W/m² | - |
| 1778095927 | 5° C | 58% | 1013 hPa | 0 mm | - | 192 W/m² | - |
| 1778095624 | 5° C | 56% | 1013.1 hPa | 0 mm | - | 215 W/m² | - |
| 1778095320 | 5° C | 58% | 1013.2 hPa | 0 mm | - | 195 W/m² | - |
| 1778095017 | 5° C | 56% | 1013.2 hPa | 0 mm | - | 186 W/m² | - |
| 1778094713 | 5° C | 58% | 1013 hPa | 0 mm | - | 198 W/m² | - |
| 1778094411 | 5° C | 58% | 1013 hPa | 0 mm | - | 194 W/m² | - |
| 1778094107 | 5° C | 59% | 1013.2 hPa | 0 mm | - | 221 W/m² | - |
| 1778093804 | 5° C | 60% | 1013.3 hPa | 0 mm | - | 227 W/m² | - |
| 1778093500 | 5° C | 60% | 1013.3 hPa | 0 mm | - | 228 W/m² | - |
| 1778093198 | 5° C | 58% | 1013.1 hPa | 0 mm | - | 218 W/m² | - |
| 1778092895 | 5° C | 59% | 1013.3 hPa | 0 mm | - | 230 W/m² | - |
| 1778092592 | 5° C | 63% | 1013 hPa | 0 mm | - | 236 W/m² | - |
| 1778092288 | 5° C | 62% | 1013.1 hPa | 0 mm | - | 268 W/m² | - |
| 1778091986 | 5° C | 61% | 1012.9 hPa | 0 mm | - | 275 W/m² | - |
| 1778091682 | 5° C | 60% | 1013 hPa | 0 mm | - | 293 W/m² | - |
| 1778091380 | 5° C | 61% | 1013.1 hPa | 0 mm | - | 231 W/m² | - |
| 1778091077 | 5° C | 61% | 1013 hPa | 0 mm | - | 195 W/m² | - |
| 1778090774 | 5° C | 60% | 1013.2 hPa | 0 mm | - | 231 W/m² | - |
| 1778090470 | 5° C | 60% | 1012.9 hPa | 0 mm | - | 253 W/m² | - |
| 1778090166 | 4.44° C | 60% | 1013.3 hPa | 0 mm | - | 245 W/m² | - |
* Rain latest hour (hover to see other rain measurements)
** Current wind speed in m/s (hover to see current wind gust speed)